This demonstration page uses our WeatherBlox Daily Observations layout. Learn more.

Hourly Observations for February 9, 2015

Temp ( °F °C ) Dew Point ( °F °C ) Humidity (%) Winds ( mph kmh ) Pressure ( in mb ) Visibility ( mi km ) Precip ( " mm )
12:15 am 00:15 Clear 32 0.2 30 -1.2 90 90 Calm 30.24 1024 10 16.0934 0 0
12:35 am 00:35 Clear 33 0.4 30 -1.1 90 90 Calm 30.24 1024 10 16.0934 0 0
12:55 am 00:55 Clear 31 -0.6 28 -2.1 90 90 Calm 30.24 1024 10 16.0934 0 0
1:15 am 01:15 Clear 32 0 30 -1.2 92 92 Calm 30.24 1024 10 16.0934 0 0
1:35 am 01:35 Clear 32 -0.1 29 -1.4 91 91 W 5 7 30.24 1024 10 16.0934 0 0
1:55 am 01:55 Clear 32 -0.1 29 -1.4 91 91 WSW 5 7 30.24 1024 10 16.0934 0 0
2:15 am 02:15 Clear 33 0.3 31 -0.6 94 94 Calm 30.24 1024 10 16.0934 0 0
2:35 am 02:35 Clear 31 -0.3 29 -1.6 91 91 WSW 3 6 30.24 1024 10 16.0934 0 0
2:55 am 02:55 Clear 30 -1.2 28 -2.3 92 92 Calm 30.24 1024 10 16.0934 0 0
3:15 am 03:15 Clear 30 -1.2 28 -2.3 92 92 W 3 6 30.24 1024 10 16.0934 0 0
3:35 am 03:35 Clear 30 -0.9 29 -1.8 94 94 W 5 7 30.24 1024 10 16.0934 0 0
3:55 am 03:55 Clear 32 -0.1 31 -0.8 95 95 W 5 7 30.24 1024 10 16.0934 0 0
4:15 am 04:15 Clear 32 0.2 31 -0.3 96 96 WSW 3 6 30.24 1024 10 16.0934 0 0
4:35 am 04:35 Clear 32 -0.1 30 -1 94 94 Calm 30.24 1024 10 16.0934 0 0
4:55 am 04:55 Clear 28 -2.4 26 -3.6 92 92 Calm 30.24 1024 10 16.0934 0 0
5:15 am 05:15 Clear 29 -1.8 27 -2.8 93 93 Calm 30.24 1024 10 16.0934 0 0
5:35 am 05:35 Clear 31 -0.4 30 -1.1 95 95 SSW 5 7 30.24 1024 10 16.0934 0 0
5:55 am 05:55 Clear 31 -0.7 29 -1.7 93 93 Calm 30.24 1024 10 16.0934 0 0
6:15 am 06:15 Clear 32 0 31 -0.8 94 94 Calm 30.24 1024 10 16.0934 0 0
6:35 am 06:35 Clear 32 -0.1 30 -1 94 94 Calm 30.24 1024 10 16.0934 0 0
6:55 am 06:55 Clear 30 -1.2 28 -2.3 92 92 SW 3 6 30.24 1024 10 16.0934 0 0
7:15 am 07:15 Clear 30 -1.1 28 -2 94 94 SW 3 6 30.24 1024 10 16.0934 0 0
7:35 am 07:35 Clear 31 -0.6 29 -1.7 92 92 WSW 5 7 30.24 1024 10 16.0934 0 0
7:55 am 07:55 Sunny 34 1.1 31 -0.5 89 89 WSW 5 7 30.21 1023 10 16.0934 0 0
8:15 am 08:15 Sunny 33 0.8 30 -1 88 88 SW 6 9 30.21 1023 10 16.0934 0 0
8:35 am 08:35 Sunny 33 0.6 30 -1.1 89 89 SW 5 7 30.21 1023 10 16.0934 0 0
8:55 am 08:55 Sunny 35 1.5 31 -0.5 87 87 SSW 5 7 30.21 1023 10 16.0934 0 0
9:15 am 09:15 Sunny 37 2.9 32 0 81 81 SW 3 6 30.21 1023 10 16.0934 0 0
9:35 am 09:35 Sunny 40 4.4 34 0.9 78 78 SSW 3 6 30.18 1022 10 16.0934 0 0
9:55 am 09:55 Sunny 44 6.4 35 1.5 71 71 SSW 3 6 30.18 1022 10 16.0934 0 0
10:15 am 10:15 Sunny 46 7.7 34 1.3 64 64 SW 3 6 30.15 1021 10 16.0934 0 0
10:35 am 10:35 Sunny 49 9.3 34 1.2 57 57 WSW 6 9 30.15 1021 10 16.0934 0 0
10:55 am 10:55 Sunny 50 10 35 1.4 55 55 SSW 5 7 30.15 1021 10 16.0934 0 0
11:15 am 11:15 Sunny 52 11 35 1.8 53 53 SW 6 9 30.12 1020 10 16.0934 0 0
11:35 am 11:35 Sunny 54 12 35 1.9 50 50 S 5 7 30.12 1020 10 16.0934 0 0
11:55 am 11:55 Sunny 54 12.4 35 1.9 49 49 S 6 9 30.12 1020 10 16.0934 0 0
12:15 pm 12:15 Sunny 56 13.1 36 2 47 47 S 9 15 30.12 1020 10 16.0934 0 0
12:35 pm 12:35 Sunny 57 13.9 35 1.8 44 44 SSW 8 13 30.09 1019 10 16.0934 0 0
12:55 pm 12:55 Sunny 58 14.3 35 1.4 42 42 S 9 15 30.06 1018 10 16.0934 0 0
1:15 pm 13:15 Sunny 58 14.5 35 1.5 42 42 S 12 19 30.06 1018 10 16.0934 0 0
1:35 pm 13:35 Sunny 59 14.9 37 2.7 44 44 S 9 15 30.03 1017 10 16.0934 0 0
1:55 pm 13:55 Sunny 59 15.2 37 3 44 44 S 13 20 30.03 1017 10 16.0934 0 0
2:15 pm 14:15 Sunny 59 15 38 3.2 45 45 S 10 17 30.03 1017 10 16.0934 0 0
2:35 pm 14:35 Sunny 59 14.9 38 3.3 46 46 SSE 12 19 30.03 1017 10 16.0934 0 0
2:55 pm 14:55 Sunny 58 14.6 38 3.2 47 47 SSE 10 17 30 1016 10 16.0934 0 0
3:15 pm 15:15 Sunny 57 14.1 38 3.1 48 48 SSE 14 22 30 1016 10 16.0934 0 0
3:35 pm 15:35 Sunny 57 13.8 38 3.2 49 49 SSE 12 19 29.97 1015 10 16.0934 0 0
3:55 pm 15:55 Sunny 56 13.3 38 3.5 52 52 SSE 14 22 29.97 1015 10 16.0934 0 0
4:15 pm 16:15 Sunny 55 12.6 39 3.7 55 55 SSE 14 22 29.97 1015 10 16.0934 0 0
4:35 pm 16:35 Sunny 53 11.5 39 3.9 60 60 SE 16 26 30 1016 10 16.0934 0 0
4:55 pm 16:55 Sunny 52 10.9 39 4 63 63 SE 17 28 30 1016 10 16.0934 0 0
5:15 pm 17:15 Sunny 50 9.8 39 3.8 67 67 SE 15 24 30 1016 10 16.0934 0 0
5:35 pm 17:35 Sunny 47 8.3 38 3.5 72 72 SE 14 22 30.03 1017 10 16.0934 0 0
5:55 pm 17:55 Sunny 44 6.6 37 3 78 78 SE 14 22 30.03 1017 10 16.0934 0 0
6:15 pm 18:15 Clear 41 5.1 37 2.7 85 85 SE 16 26 30.06 1018 10 16.0934 0 0
6:35 pm 18:35 Partly Cloudy 38 3.6 36 2.2 91 91 SE 16 26 30.06 1018 7 11.26538 0 0
6:55 pm 18:55 Cloudy with Mist and Fog 38 3.4 36 2.4 93 93 SE 13 20 30.06 1018 5 8.0467 0 0
7:15 pm 19:15 Cloudy with Mist and Fog 38 3.1 36 2.3 95 95 SE 18 30 30.06 1018 1.25 2.011675 0 0
7:35 pm 19:35 Cloudy with Mist and Fog 37 3 36 2.2 95 95 SSE 16 26 30.06 1018 0.75 1.207005 0 0
7:55 pm 19:55 Cloudy with Mist and Fog 37 3 36 2.3 95 95 SE 15 24 30.06 1018 0.75 1.207005 0 0
8:15 pm 20:15 Cloudy with Mist and Fog 37 3 36 2.2 95 95 SE 14 22 30.06 1018 0.75 1.207005 0 0
8:35 pm 20:35 Cloudy with Fog 37 2.5 35 1.8 95 95 SSE 14 22 30.06 1018 0.5 0.80467 0 0
8:55 pm 20:55 Cloudy with Fog 36 2.4 35 1.7 95 95 SSE 15 24 30.09 1019 0.5 0.80467 0 0
9:15 pm 21:15 Cloudy with Fog 36 2.4 35 1.8 96 96 SSE 16 26 30.09 1019 0.5 0.80467 0 0
9:35 pm 21:35 Cloudy with Fog 36 2.3 35 1.7 96 96 SSE 14 22 30.09 1019 0.5 0.80467 0 0
9:55 pm 21:55 Cloudy with Fog 36 2.2 35 1.6 96 96 SSE 17 28 30.09 1019 0.5 0.80467 0 0
10:15 pm 22:15 Cloudy with Fog 36 2.1 35 1.5 96 96 SSE 20 31 30.09 1019 0.5 0.80467 0 0
10:35 pm 22:35 Cloudy with Fog 36 2 35 1.5 97 97 SSE 16 26 30.09 1019 0.5 0.80467 0 0
10:55 pm 22:55 Cloudy with Light Rain 36 2 34 1.3 95 95 SSE 18 30 30.09 1019 0.5 0.80467 0 0
11:15 pm 23:15 Cloudy with Fog 36 2 35 1.5 97 97 SSE 16 26 30.09 1019 0.5 0.80467 0 0
11:35 pm 23:35 Cloudy with Fog 36 2 35 1.5 97 97 SSE 16 26 30.06 1018 0.5 0.80467 0 0
11:55 pm 23:55 Cloudy with Fog 36 2 35 1.5 97 97 S 17 28 30.06 1018 0.5 0.80467 0 0

Powered by AerisWeather